Hourly Data Report for July 19, 2021

KITCHENER/WATERLOO
ONTARIO
Current Station Operator: NAVCAN

43°27'39.000" N
80°22'43.000" W
321.60 m
6144239
71368
YKF

Download Data

Hourly Data (July 2021)
Hourly Data Report for July 19, 2021
TIME
LST
Temp Definition
°C
Dew Point Definition
°C
Rel Hum Definition
%
Precip. Amount Definition
mm

Wind Dir Definition
10's deg

Wind Spd Definition
km/h
Visibility Definition
km
Stn Press Definition
kPa
Hmdx Definition


Wind Chill Definition


Weather Definition


00:00 16.5 15.4 93 0.0 31 8 16.1 98.19     LegendNANA
01:00 15.1 14.5 96 0.0 29 8 16.1 98.19     LegendNANA
02:00 14.9 14.4 97 0.0 32 9 12.9 98.14     LegendNANA
03:00 14.9 14.4 97 0.0 31 8 12.9 98.12     LegendNANA
04:00 14.8 14.3 97 0.0 30 8 11.3 98.13     LegendNANA
05:00 14.7 14.1 96 0.0 31 5 12.9 98.14     LegendNANA
06:00 15.2 14.6 96 0.0 31 9 9.7 98.16     Fog
07:00 17.0 15.6 91 0.0 32 5 12.9 98.14     LegendNANA
08:00 LegendMM LegendMM LegendMM LegendMM LegendMM LegendMM LegendMM LegendMM     LegendNANA
09:00 22.3 18.5 79 0.0 32 9 14.5 98.17 29   LegendNANA
10:00 24.7 19.0 70 0.0 30 5 14.5 98.14 31   LegendNANA
11:00 26.2 19.5 66 0.0 33 9 11.3 98.10 33   LegendNANA
12:00 26.9 18.7 60 0.0 33 13 12.9 98.06 33   LegendNANA
13:00 27.9 19.0 58 0.0 32 13 11.3 98.03 35   LegendNANA
14:00 27.3 18.0 56 0.0 31 17 9.7 98.02 33   Haze
15:00 27.8 19.0 58 0.0 32 15 9.7 97.96 35   Haze
16:00 27.0 19.2 62 0.0 33 11 8.1 97.96 34   Haze
17:00 26.5 19.7 66 0.0 31 11 8.1 97.94 34   Haze
18:00 25.8 19.7 69 0.0 31 11 8.1 97.93 33   Haze
19:00 24.7 19.0 70 0.0 31 11 8.1 97.91 31   Haze
20:00 22.8 18.8 78 0.0 32 9 8.1 97.94 29   Haze
21:00 21.4 18.9 85 0.0 30 9 8.1 97.96 28   Fog
22:00 20.3 18.8 91 0.0 30 5 8.1 97.97 27   Fog
23:00 20.5 18.5 88 0.0 31 13 8.1 97.96 27   Fog

Notes on Data Quality.

Legend

  • E = Estimated
  • M = Missing
  • NA = Not Available*
  • [empty] = Indicates an unobserved value
Date modified: